[[{"header":{"parameterUnit":"m.s-1","parameterCategory":1,"la1":30.2991,"la2":30.254,"lo1":-89.0895,"lo2":-89.0444,"dy":0.0017,"dx":0.0017,"nx":28,"ny":28,"refTime":"2025-06-18T21:00:00:Z","depth":0,"parameterNumber":2,"parameterNumberName":"U-component_of_WINDS"},"data":[0,0,0,0,0,0,0,0,0,0,0,0,0,0,0,0,0,0,0,0,0,0,0,0,0,0,0,0,0,0,0,0,0,0,0,0,0,0,0,0,0,0,0,0,0,0,0,0,0,0,0,0,0,0,0,0,0,0,4.5879,4.5881,0,4.6012,4.6014,4.6015,4.5927,4.5923,4.5919,4.5915,4.6055,4.6063,4.607,0,0,0,0,0,0,0,0,0,0,0,0,0,4.5552,4.5558,4.5879,4.5881,4.5882,4.6012,4.6014,4.6015,4.5928,4.5923,4.5918,4.5913,4.6053,4.6062,4.6071,0,0,0,0,0,0,0,0,0,0,0,0,0,4.569,4.556,4.5879,4.5854,4.5853,4.6011,4.6014,4.6016,4.5929,4.5923,4.5917,4.5911,4.605,4.6061,4.6072,4.6263,0,0,4.6106,4.6111,0,0,0,0,0,0,0,0,4.5683,4.5702,4.5856,4.5856,4.5856,4.5947,4.5949,4.6099,4.593,4.59,4.5915,4.5908,4.6024,4.6037,4.6076,4.627,4.6276,4.6107,4.6114,4.6119,4.6122,0,0,0,0,0,0,0,4.5673,4.5696,4.5932,4.5859,4.5858,4.5837,4.585,4.5977,4.5995,4.5903,4.5896,4.5913,4.6023,4.6065,4.6078,4.6278,4.6107,4.6117,4.6124,4.6128,4.6632,4.6638,0,0,0,0,0,0,4.5665,4.5689,4.5928,4.5936,4.5752,4.5848,4.5863,4.5924,4.5993,4.5998,4.5918,4.5909,4.6049,4.6065,4.6083,4.6309,4.6119,4.613,4.6136,4.6625,4.6633,4.664,0,0,0,0,0,0,4.5659,4.5687,4.5922,4.5811,4.5839,4.586,4.5929,4.593,4.5971,4.6005,4.6008,4.5958,4.6045,4.6067,4.6218,4.6313,4.6135,4.6145,4.6617,4.6628,4.6637,4.6764,0,0,0,0,0,0,4.5649,4.5685,4.5758,4.5813,4.5845,4.6055,4.5935,4.5936,4.599,4.5979,4.6043,4.6048,4.6042,4.6202,4.6229,4.6325,4.6154,4.6609,4.6622,4.6634,4.6751,4.6777,4.6799,0,0,0,0,0,4.5638,4.579,4.5762,4.5791,4.5936,4.606,4.6079,4.6068,4.5999,4.6071,4.6093,4.6046,4.6298,4.6218,4.6248,4.6349,4.6603,4.6618,4.6633,4.6741,4.6772,4.6798,0,0,0,0,0,0,4.5748,4.5797,4.5766,4.594,4.5997,4.6045,4.6137,4.6102,4.618,4.6166,4.615,4.6165,4.6322,4.6351,4.626,4.6536,4.644,4.6461,4.6511,4.6541,4.6565,4.6554,4.6163,0,0,0,0,0,4.5791,4.5887,4.5926,4.6076,4.6105,4.6117,4.617,4.6156,4.6215,4.6238,4.6271,4.633,4.6422,4.6483,4.657,4.6755,4.6767,4.6839,4.6863,4.6882,4.6901,4.6998,4.703,4.6689,4.6689,4.6689,0,0,4.5884,4.5923,4.5985,4.6098,4.614,4.624,4.6137,4.6248,4.6322,4.6256,4.6399,4.6425,4.649,4.6658,4.6733,4.6686,4.6997,4.6901,4.6916,4.6925,4.7017,4.7049,4.7078,4.6699,4.6698,4.6696,0,0,4.6103,4.6143,4.6271,4.6314,4.6378,4.6384,4.6415,4.6469,4.6483,4.6626,4.6578,4.6666,4.6826,4.6873,4.6918,4.7153,4.7112,4.7182,4.7306,4.7401,4.7428,4.7452,4.7534,4.7563,4.7201,4.7201,4.7201,0,4.6211,4.6358,4.6341,4.6455,4.6506,4.6448,4.6577,4.6621,4.6711,4.6748,4.6693,4.689,4.693,4.7107,4.7164,4.7203,4.7237,4.7174,4.7425,4.7449,4.7471,4.7549,4.758,4.7209,4.7208,4.7207,4.7206,0,4.6486,4.6589,4.6685,4.677,4.6832,4.6953,4.6955,4.702,4.7,4.7012,4.7158,4.7203,4.7297,4.7338,4.7322,4.7513,4.7481,4.7427,4.733,4.7511,4.7584,4.7614,4.722,4.7217,4.7215,4.7213,0,0,4.6779,4.6852,4.6887,4.6924,4.6989,4.7069,4.7187,4.7277,4.7332,4.7396,4.7494,4.7629,4.7578,4.7629,4.7617,4.7701,4.7881,4.7636,4.7637,4.7678,4.8092,4.8132,4.8167,4.7855,4.786,4.7865,4.8086,0,4.7,4.7204,4.7191,4.7383,4.7477,4.7423,4.7526,4.7577,4.7591,4.7674,4.7689,4.7785,4.7711,4.7741,4.7822,4.7842,4.7964,4.7826,4.7945,4.795,4.7929,4.8205,4.8248,4.8455,4.8115,4.812,4.8123,0,4.7286,4.7357,4.7558,4.7606,4.7645,4.7738,4.7817,4.7897,4.7954,4.7958,4.8014,4.7987,4.8106,4.8006,4.8169,4.8076,4.8124,4.8141,4.8149,4.8159,4.8047,4.8221,4.8521,4.8551,4.8168,4.8165,4.8161,0,4.7477,4.7623,4.7761,4.7795,4.7856,4.7921,4.795,4.8001,4.8055,4.8125,4.816,4.8245,4.8291,4.8356,4.8353,4.8281,4.8518,4.8418,4.8524,4.8524,4.8576,4.8573,4.8886,4.8609,4.8609,4.8608,4.8608,0,4.7725,4.785,4.7847,4.7932,4.807,4.8054,4.8191,4.8212,4.8257,4.8346,4.8305,4.8389,4.838,4.8464,4.8463,4.8597,4.8618,4.8625,4.8623,4.8628,4.8627,4.8658,4.8643,4.8617,4.8615,4.8613,4.8612,0,4.7962,4.7965,4.8112,4.8156,4.8171,4.827,4.8308,4.8389,4.8398,4.851,4.8536,4.8551,4.8648,4.8651,4.8764,4.8762,4.8925,4.8908,4.8906,4.8902,4.9006,4.8996,4.935,4.9395,4.9091,4.9094,4.9096,0,4.8119,4.8213,4.8267,4.8322,4.8354,4.8444,4.8498,4.8486,4.8544,4.8614,4.8686,4.8779,4.8852,4.901,4.9032,4.9117,4.91,4.9218,4.9113,4.9114,4.91,4.9093,4.9102,4.9239,4.9242,4.9245,4.9247,0,4.8397,4.8393,4.8472,4.8552,4.8617,4.868,4.8737,4.8785,4.878,4.8847,4.8944,4.9001,4.9114,4.9206,4.9288,4.9318,4.9282,4.928,4.9309,4.9314,4.9308,4.9311,4.896,4.9272,4.9269,4.9268,4.9266,4.9265,4.8598,4.8678,4.8727,4.8816,4.8857,4.8912,4.8988,4.9007,4.9087,4.9177,4.9165,4.9274,4.9326,4.9432,4.9469,4.9553,4.9512,4.9554,4.9565,4.9575,4.9585,4.9296,4.9568,4.9568,4.9567,4.9566,4.9566,0,4.8872,4.89,4.8982,4.9063,4.9132,4.9091,4.9152,4.9213,4.9308,4.9359,4.9431,4.9543,4.9631,4.9659,4.9745,4.9807,4.9792,4.983,4.9825,4.9832,4.9618,4.9583,4.984,4.984,4.984,4.984,4.984,4.984,4.9023,4.9155,4.9157,4.9309,4.9337,4.9441,4.948,4.9529,4.9569,4.9695,4.9767,4.9784,4.9826,4.9914,4.9993,4.9999,5.0032,5.0076,5.0075,4.9875,4.9847,4.9821,4.9788,5.0084,5.0084,5.0281,5.0283,5.0285]},{"header":{"parameterUnit":"m.s-1","parameterCategory":1,"la1":30.2991,"la2":30.254,"lo1":-89.0895,"lo2":-89.0444,"dy":0.0017,"dx":0.0017,"nx":28,"ny":28,"refTime":"2025-06-18T21:00:00:Z","depth":0,"parameterNumber":3,"parameterNumberName":"V-component_of_WINDS"},"data":[0,0,0,0,0,0,0,0,0,0,0,0,0,0,0,0,0,0,0,0,0,0,0,0,0,0,0,0,0,0,0,0,0,0,0,0,0,0,0,0,0,0,0,0,0,0,0,0,0,0,0,0,0,0,0,0,0,0,0.5585,0.5586,0,0.5635,0.5636,0.5637,0.5645,0.5645,0.5645,0.5644,0.5697,0.5699,0.57,0,0,0,0,0,0,0,0,0,0,0,0,0,0.5497,0.5498,0.5585,0.5586,0.5586,0.5635,0.5636,0.5637,0.5646,0.5645,0.5644,0.5644,0.5696,0.5698,0.57,0,0,0,0,0,0,0,0,0,0,0,0,0,0.554,0.5499,0.5585,0.5597,0.5598,0.5635,0.5636,0.5637,0.5646,0.5645,0.5644,0.5644,0.5696,0.5698,0.5701,0.573,0,0,0.5709,0.571,0,0,0,0,0,0,0,0,0.5537,0.5543,0.5594,0.5596,0.5598,0.5633,0.5624,0.5668,0.5646,0.5628,0.5644,0.5643,0.5676,0.5681,0.5691,0.5733,0.5735,0.5709,0.5711,0.5712,0.5713,0,0,0,0,0,0,0,0.5534,0.5541,0.5605,0.5595,0.5597,0.5599,0.5605,0.5633,0.5655,0.5629,0.563,0.5636,0.5677,0.5689,0.5693,0.5736,0.5709,0.5712,0.5713,0.5714,0.5802,0.5803,0,0,0,0,0,0,0.5529,0.5538,0.5603,0.5606,0.5565,0.5601,0.5607,0.5623,0.5655,0.5659,0.5636,0.5636,0.5685,0.569,0.5695,0.5731,0.5712,0.5715,0.5716,0.5802,0.5803,0.5803,0,0,0,0,0,0,0.5527,0.5535,0.5601,0.5573,0.5581,0.5604,0.5621,0.5624,0.5636,0.566,0.5664,0.5644,0.5684,0.5691,0.5721,0.5733,0.5716,0.5718,0.5801,0.5802,0.5803,0.5803,0,0,0,0,0,0,0.5525,0.5534,0.5546,0.5573,0.5583,0.5627,0.5621,0.5625,0.564,0.564,0.5668,0.5672,0.5684,0.5717,0.5724,0.5736,0.572,0.58,0.5801,0.5803,0.5802,0.5804,0.5806,0,0,0,0,0,0.5521,0.5544,0.5546,0.5554,0.5598,0.5628,0.5633,0.5646,0.5641,0.5653,0.5668,0.5672,0.573,0.572,0.5728,0.5741,0.5799,0.5801,0.5803,0.5802,0.5804,0.5806,0,0,0,0,0,0,0.5518,0.5548,0.5551,0.5583,0.5602,0.5629,0.5644,0.5648,0.567,0.567,0.5685,0.5691,0.572,0.5734,0.5722,0.5771,0.5764,0.5768,0.5761,0.5763,0.5765,0.5761,0.5723,0,0,0,0,0,0.5521,0.5543,0.5568,0.5594,0.5603,0.5622,0.5636,0.5643,0.5665,0.5673,0.5691,0.5712,0.5735,0.575,0.5772,0.5804,0.581,0.5817,0.5819,0.582,0.5823,0.584,0.5843,0.5809,0.5809,0.5809,0,0,0.5528,0.5547,0.556,0.5593,0.561,0.5632,0.5629,0.5653,0.5669,0.5677,0.5707,0.572,0.5744,0.5775,0.5789,0.5787,0.5833,0.5822,0.5823,0.5825,0.5842,0.5845,0.5848,0.581,0.581,0.5809,0,0,0.5551,0.5568,0.5591,0.5607,0.5631,0.5643,0.5648,0.5674,0.5683,0.5713,0.5719,0.5739,0.5778,0.5795,0.5808,0.5836,0.584,0.5843,0.5853,0.5869,0.5872,0.5874,0.5884,0.5887,0.5846,0.5846,0.5846,0,0.5556,0.559,0.5602,0.5625,0.564,0.5647,0.567,0.5685,0.5716,0.5726,0.5723,0.5771,0.5788,0.5823,0.5829,0.584,0.5847,0.5841,0.587,0.5873,0.5876,0.5885,0.5889,0.5846,0.5846,0.5846,0.5846,0,0.5595,0.5618,0.5634,0.5662,0.5679,0.5702,0.5717,0.5732,0.5738,0.5751,0.578,0.58,0.5827,0.5835,0.5842,0.587,0.5868,0.5867,0.5861,0.5879,0.5888,0.5892,0.5846,0.5846,0.5846,0.5846,0,0,0.5619,0.5653,0.5659,0.5671,0.5698,0.5716,0.5739,0.5764,0.5777,0.5797,0.5817,0.5849,0.5849,0.5864,0.5872,0.5887,0.5907,0.5884,0.5885,0.5888,0.5939,0.594,0.5944,0.5909,0.591,0.5911,0.5937,0,0.5645,0.5687,0.5698,0.5733,0.5754,0.576,0.5781,0.5799,0.5811,0.583,0.5843,0.5866,0.5863,0.5872,0.5887,0.5901,0.5918,0.59,0.5928,0.5929,0.5922,0.5949,0.595,0.5974,0.5941,0.5941,0.5942,0,0.5682,0.5703,0.574,0.5763,0.5772,0.579,0.5813,0.5832,0.5853,0.586,0.5877,0.5883,0.5907,0.5899,0.5933,0.592,0.5932,0.5941,0.5942,0.5946,0.5937,0.5953,0.5982,0.5985,0.5948,0.5947,0.5947,0,0.5696,0.5732,0.5759,0.577,0.5798,0.581,0.5822,0.5842,0.5856,0.5877,0.5886,0.5909,0.5922,0.5939,0.5952,0.5945,0.5984,0.5977,0.599,0.599,0.5999,0.5998,0.603,0.6006,0.6006,0.6006,0.6006,0,0.5724,0.5747,0.5765,0.5782,0.5807,0.5819,0.5844,0.5856,0.5874,0.5892,0.5899,0.5917,0.5932,0.5952,0.5962,0.5987,0.5993,0.6,0.6002,0.5999,0.5998,0.6008,0.6006,0.6007,0.6007,0.6007,0.6006,0,0.5744,0.5757,0.5787,0.581,0.5817,0.5834,0.5854,0.587,0.5881,0.5905,0.5911,0.5929,0.5953,0.5966,0.5996,0.6003,0.6031,0.6033,0.6024,0.6025,0.6038,0.6036,0.6077,0.6083,0.6055,0.6055,0.6055,0,0.5761,0.5779,0.5803,0.5816,0.5828,0.5849,0.5863,0.5876,0.589,0.5914,0.5927,0.5951,0.597,0.6007,0.6023,0.6045,0.6047,0.606,0.6051,0.6047,0.6047,0.6046,0.6048,0.6062,0.6062,0.6062,0.6062,0,0.5791,0.5796,0.5816,0.5838,0.5855,0.5873,0.5891,0.5901,0.5917,0.5932,0.5956,0.5971,0.6,0.6023,0.6047,0.6059,0.6063,0.6065,0.6069,0.6067,0.6061,0.6064,0.6028,0.6064,0.6064,0.6064,0.6064,0.6064,0.581,0.5825,0.5845,0.5867,0.5881,0.5898,0.5914,0.5927,0.5946,0.5971,0.5977,0.6002,0.6021,0.6053,0.6066,0.6085,0.6083,0.6089,0.6091,0.6092,0.6092,0.6057,0.6089,0.6089,0.6089,0.6089,0.6089,0,0.584,0.5852,0.5872,0.5897,0.5914,0.5915,0.5935,0.5949,0.5971,0.5988,0.6007,0.6033,0.6055,0.6072,0.6095,0.6107,0.6109,0.6112,0.6112,0.6114,0.6093,0.6087,0.611,0.611,0.611,0.611,0.611,0.611,0.5857,0.5883,0.5891,0.5923,0.5936,0.596,0.5971,0.5986,0.6,0.6029,0.6047,0.6058,0.6075,0.6099,0.6119,0.6123,0.6131,0.6134,0.6139,0.6118,0.6116,0.6114,0.6108,0.6136,0.6136,0.6158,0.6159,0.6159]}]]